TimeEDT,TemperatureF,Dew PointF,Humidity,Sea Level PressureIn,VisibilityMPH,Wind Direction,Wind SpeedMPH,Gust SpeedMPH,PrecipitationIn,Events,Conditions,WindDirDegrees,DateUTC
12:15 AM,53.1,52.7,99,30.06,10.0,Calm,Calm,-,N/A,,Clear,0,2013-10-11 04:15:00
12:35 AM,53.8,53.8,100,30.05,10.0,West,3.5,-,N/A,,Scattered Clouds,260,2013-10-11 04:35:00
12:55 AM,53.6,52.3,95,30.05,10.0,Calm,Calm,-,N/A,,Scattered Clouds,0,2013-10-11 04:55:00
1:15 AM,52.7,52.3,99,30.05,10.0,Calm,Calm,-,N/A,,Clear,0,2013-10-11 05:15:00
1:35 AM,51.6,51.4,99,30.05,10.0,Calm,Calm,-,N/A,,Scattered Clouds,0,2013-10-11 05:35:00
1:55 AM,54.1,54.0,99,30.05,10.0,WNW,3.5,-,N/A,,Scattered Clouds,300,2013-10-11 05:55:00
2:15 AM,52.0,51.6,99,30.05,10.0,South,3.5,-,N/A,,Scattered Clouds,190,2013-10-11 06:15:00
2:55 AM,51.4,51.4,100,30.05,10.0,Calm,Calm,-,N/A,,Clear,0,2013-10-11 06:55:00
3:15 AM,50.9,50.9,100,30.05,10.0,Calm,Calm,-,N/A,,Clear,0,2013-10-11 07:15:00
3:35 AM,50.4,50.4,100,30.05,10.0,Calm,Calm,-,N/A,,Clear,0,2013-10-11 07:35:00
3:55 AM,50.7,50.7,100,30.05,10.0,Calm,Calm,-,N/A,,Scattered Clouds,0,2013-10-11 07:55:00
4:15 AM,52.3,52.3,100,30.05,10.0,Calm,Calm,-,N/A,,Mostly Cloudy,0,2013-10-11 08:15:00
4:35 AM,51.8,51.8,100,30.04,10.0,Calm,Calm,-,N/A,,Overcast,0,2013-10-11 08:35:00
4:55 AM,55.6,54.3,96,30.04,10.0,Calm,Calm,-,N/A,,Overcast,0,2013-10-11 08:55:00
5:15 AM,53.2,51.8,95,30.04,10.0,Calm,Calm,-,N/A,,Mostly Cloudy,0,2013-10-11 09:15:00
5:35 AM,51.4,50.4,96,30.04,10.0,Calm,Calm,-,N/A,,Scattered Clouds,0,2013-10-11 09:35:00
5:55 AM,50.2,50.0,99,30.05,10.0,Calm,Calm,-,N/A,,Clear,0,2013-10-11 09:55:00
6:15 AM,49.5,49.5,100,30.05,10.0,Calm,Calm,-,N/A,,Clear,0,2013-10-11 10:15:00
6:35 AM,49.3,49.3,100,30.06,10.0,Calm,Calm,-,N/A,,Clear,0,2013-10-11 10:35:00
6:55 AM,49.5,49.5,100,30.06,10.0,Calm,Calm,-,N/A,,Clear,0,2013-10-11 10:55:00
7:15 AM,48.7,48.7,100,30.06,10.0,Calm,Calm,-,N/A,,Clear,0,2013-10-11 11:15:00
7:35 AM,48.6,48.6,100,30.06,10.0,Calm,Calm,-,N/A,,Clear,0,2013-10-11 11:35:00
7:55 AM,49.3,49.3,100,30.06,10.0,Calm,Calm,-,N/A,,Clear,0,2013-10-11 11:55:00
8:15 AM,51.3,51.3,100,30.06,10.0,Calm,Calm,-,N/A,,Clear,0,2013-10-11 12:15:00
8:35 AM,56.1,55.9,99,30.06,10.0,Calm,Calm,-,N/A,,Clear,0,2013-10-11 12:35:00
8:55 AM,58.3,53.8,85,30.07,10.0,Calm,Calm,-,N/A,,Scattered Clouds,0,2013-10-11 12:55:00
9:15 AM,60.4,54.5,81,30.08,10.0,Calm,Calm,-,N/A,,Mostly Cloudy,0,2013-10-11 13:15:00
9:35 AM,60.8,54.9,81,30.08,10.0,Calm,Calm,-,N/A,,Scattered Clouds,0,2013-10-11 13:35:00
9:55 AM,61.7,55.4,80,30.08,10.0,Calm,Calm,-,N/A,,Clear,0,2013-10-11 13:55:00
10:15 AM,64.8,55.9,73,30.08,10.0,Calm,Calm,-,N/A,,Clear,0,2013-10-11 14:15:00
10:35 AM,67.6,55.4,65,30.07,10.0,Calm,Calm,-,N/A,,Clear,0,2013-10-11 14:35:00
10:55 AM,69.3,54.0,58,30.07,10.0,WSW,3.5,-,N/A,,Clear,240,2013-10-11 14:55:00
11:15 AM,70.9,52.0,51,30.07,10.0,West,3.5,-,N/A,,Clear,280,2013-10-11 15:15:00
11:35 AM,71.4,53.8,54,30.06,10.0,SW,3.5,-,N/A,,Clear,230,2013-10-11 15:35:00
11:55 AM,72.7,53.6,51,30.06,10.0,Calm,Calm,-,N/A,,Clear,0,2013-10-11 15:55:00
12:15 PM,74.3,53.1,47,30.05,10.0,West,3.5,-,N/A,,Clear,270,2013-10-11 16:15:00
12:35 PM,75.0,53.2,47,30.05,10.0,NW,5.8,-,N/A,,Clear,310,2013-10-11 16:35:00
12:55 PM,76.3,52.9,44,30.04,10.0,Calm,Calm,-,N/A,,Scattered Clouds,0,2013-10-11 16:55:00
1:15 PM,77.4,51.3,40,30.04,10.0,WNW,8.1,-,N/A,,Scattered Clouds,290,2013-10-11 17:15:00
1:35 PM,78.3,49.8,37,30.02,10.0,NW,8.1,-,N/A,,Scattered Clouds,320,2013-10-11 17:35:00
1:55 PM,78.8,49.1,35,30.02,10.0,NNW,11.5,17.3,N/A,,Mostly Cloudy,340,2013-10-11 17:55:00
2:15 PM,77.4,49.8,38,30.01,10.0,NNW,9.2,-,N/A,,Overcast,340,2013-10-11 18:15:00
2:35 PM,77.7,50.5,38,30.00,10.0,North,8.1,-,N/A,,Mostly Cloudy,360,2013-10-11 18:35:00
2:55 PM,80.1,49.3,34,30.00,10.0,North,8.1,-,N/A,,Mostly Cloudy,350,2013-10-11 18:55:00
3:15 PM,80.1,48.6,33,30.00,10.0,NNW,9.2,16.1,N/A,,Mostly Cloudy,340,2013-10-11 19:15:00
3:35 PM,79.7,48.2,33,30.00,10.0,North,9.2,-,N/A,,Mostly Cloudy,350,2013-10-11 19:35:00
3:55 PM,80.4,48.2,32,29.99,10.0,North,8.1,-,N/A,,Scattered Clouds,360,2013-10-11 19:55:00
4:15 PM,79.9,47.1,32,30.00,10.0,North,8.1,-,N/A,,Clear,360,2013-10-11 20:15:00
4:35 PM,79.7,47.1,32,30.00,10.0,North,8.1,-,N/A,,Scattered Clouds,360,2013-10-11 20:35:00
4:55 PM,79.0,46.2,31,30.00,10.0,NNW,8.1,-,N/A,,Scattered Clouds,340,2013-10-11 20:55:00
5:15 PM,78.3,46.0,32,30.00,10.0,NNW,9.2,-,N/A,,Clear,340,2013-10-11 21:15:00
5:35 PM,77.5,47.1,34,30.00,10.0,North,9.2,-,N/A,,Scattered Clouds,350,2013-10-11 21:35:00
5:55 PM,77.2,47.3,35,30.01,10.0,NNW,8.1,-,N/A,,Scattered Clouds,330,2013-10-11 21:55:00
6:15 PM,75.7,49.3,39,30.01,10.0,Calm,Calm,-,N/A,,Clear,0,2013-10-11 22:15:00
6:35 PM,72.7,52.3,49,30.02,10.0,Calm,Calm,-,N/A,,Clear,0,2013-10-11 22:35:00
6:55 PM,68.4,53.4,59,30.02,10.0,NNW,3.5,-,N/A,,Scattered Clouds,330,2013-10-11 22:55:00
7:15 PM,69.1,50.9,52,30.02,10.0,Calm,Calm,-,N/A,,Scattered Clouds,0,2013-10-11 23:15:00
7:35 PM,62.8,54.5,74,30.03,10.0,Calm,Calm,-,N/A,,Clear,0,2013-10-11 23:35:00
7:55 PM,61.2,53.8,77,30.03,10.0,NNW,3.5,-,N/A,,Clear,340,2013-10-11 23:55:00
8:15 PM,59.0,55.4,88,30.03,10.0,Calm,Calm,-,N/A,,Scattered Clouds,0,2013-10-12 00:15:00
8:35 PM,57.9,54.7,89,30.04,10.0,Calm,Calm,-,N/A,,Scattered Clouds,0,2013-10-12 00:35:00
8:55 PM,57.7,54.7,90,30.04,10.0,Calm,Calm,-,N/A,,Scattered Clouds,0,2013-10-12 00:55:00
9:15 PM,58.8,54.1,84,30.05,10.0,Calm,Calm,-,N/A,,Mostly Cloudy,0,2013-10-12 01:15:00
9:35 PM,59.0,53.4,82,30.05,10.0,North,3.5,-,N/A,,Scattered Clouds,360,2013-10-12 01:35:00
9:55 PM,58.5,53.8,84,30.05,10.0,Calm,Calm,-,N/A,,Scattered Clouds,0,2013-10-12 01:55:00
10:15 PM,58.3,54.7,88,30.05,10.0,Calm,Calm,-,N/A,,Mostly Cloudy,0,2013-10-12 02:15:00
10:35 PM,61.7,55.2,79,30.06,10.0,Calm,Calm,-,N/A,,Overcast,0,2013-10-12 02:35:00
10:55 PM,62.6,54.5,75,30.06,10.0,WNW,4.6,-,N/A,,Overcast,290,2013-10-12 02:55:00
11:15 PM,62.6,54.0,73,30.06,10.0,Calm,Calm,-,N/A,,Overcast,0,2013-10-12 03:15:00
11:35 PM,61.0,55.4,82,30.06,10.0,Calm,Calm,-,N/A,,Overcast,0,2013-10-12 03:35:00
11:55 PM,60.8,55.6,83,30.05,10.0,Calm,Calm,-,N/A,,Overcast,0,2013-10-12 03:55:00